Location: Harburg
(48.7667°N, 10.6667°E)
Time: 05:18:23
(UTC+00:00)

Cosmos 2142 Rocket - Pass Details

Date: 18 September 2020
Orbit: 952 x 1005 km, 82.9° (Epoch: 29 October)

Event Time Altitude Azimuth Distance (km) Brightness Sun altitude
Exits shadow 20:21:19 71° 172° (S) 1,040 4.4 -27.8°
Maximum altitude 20:22:03 85° 97° (E) 994 4.4 -27.9°
Drops below altitude 10° 20:28:20 10° 10° (N) 2,730 7.2 -28.7°
Sets 20:30:50 0° 10° (N) 3,674 7.9 -29.0°
